This demonstration page uses our WeatherBlox Daily Observations layout. Learn more.

Left ArrowRight Arrow

39.51506, -84.39828

Hourly Observations for September 4, 2016

Temp ( °F °C ) Dew Point ( °F °C ) Humidity (%) Winds ( mph kmh ) Pressure ( in mb ) Visibility ( mi km ) Precip ( " mm )
12:15 am 00:15 Clear 61 16 55 12.6 80 80 N N/A 30.18 1022 10 16 N/A
12:35 am 00:35 Clear 60 15.5 55 12.5 82 82 N N/A 30.18 1022 10 16 N/A
12:55 am 00:55 Clear 61 16 55 12.6 80 80 N N/A 30.18 1022 10 16 N/A
1:15 am 01:15 Clear 60 15.3 54 12.1 81 81 N 3 6 30.18 1022 10 16 N/A
1:35 am 01:35 Clear 60 15.5 54 12.1 80 80 N N/A 30.18 1022 10 16 N/A
1:55 am 01:55 Clear 60 15.3 54 12 81 81 N N/A 30.18 1022 10 16 N/A
2:15 am 02:15 Clear 60 15.3 54 12 81 81 N 3 6 30.18 1022 10 16 N/A
2:35 am 02:35 Partly Cloudy 60 15.3 54 12 81 81 N N/A 30.18 1022 10 16 N/A
2:55 am 02:55 Partly Cloudy 60 15.3 53 11.8 80 80 N N/A 30.18 1022 10 16 N/A
3:15 am 03:15 Clear 60 15.3 54 12 81 81 N N/A 30.18 1022 10 16 N/A
3:35 am 03:35 Clear 60 15.3 54 12.2 82 82 N N/A 30.18 1022 10 16 N/A
3:55 am 03:55 Clear 60 15.3 54 12.1 81 81 N N/A 30.18 1022 10 16 N/A
4:15 am 04:15 Clear 60 15.3 54 12.3 82 82 N 3 6 30.21 1023 10 16 N/A
4:35 am 04:35 Clear 60 15.3 54 12.2 82 82 N 3 6 30.21 1023 10 16 N/A
4:55 am 04:55 Clear 60 15.3 54 12.3 82 82 N N/A 30.21 1023 10 16 N/A
5:15 am 05:15 Clear 60 15.3 55 12.5 84 84 N N/A 30.21 1023 10 16 N/A
5:35 am 05:35 Clear 60 15.3 55 12.5 84 84 N N/A 30.21 1023 10 16 N/A
5:55 am 05:55 Clear 60 15.3 54 12.3 82 82 N 3 6 30.21 1023 10 16 N/A
6:15 am 06:15 Clear 60 15.3 54 12.3 82 82 N N/A 30.21 1023 10 16 N/A
6:35 am 06:35 Clear 60 15.3 54 12.3 82 82 N 3 6 30.21 1023 10 16 N/A
6:55 am 06:55 Clear 59 15.1 54 12.2 83 83 N N/A 30.21 1023 10 16 N/A
7:15 am 07:15 Sunny 57 13.9 52 11.1 83 83 N N/A 30.24 1024 7 11 N/A
7:35 am 07:35 Sunny 60 15.3 55 12.5 84 84 N N/A 30.24 1024 10 16 N/A
7:55 am 07:55 Sunny 60 15.3 55 12.5 84 84 N N/A 30.24 1024 10 16 N/A
8:15 am 08:15 Sunny 60 15.3 55 12.5 84 84 N N/A 30.24 1024 10 16 N/A
8:35 am 08:35 Sunny 61 16.3 56 13.2 82 82 N N/A 30.24 1024 10 16 N/A
8:55 am 08:55 Sunny 63 17.2 56 13.3 78 78 N N/A 30.24 1024 10 16 N/A
9:15 am 09:15 Sunny 64 18 56 13.5 75 75 NNE 5 7 30.21 1023 10 16 N/A
9:35 am 09:35 Sunny 68 19.8 58 14.7 73 73 NNE 3 6 30.21 1023 10 16 N/A
9:55 am 09:55 Sunny 69 20.8 59 15.1 70 70 N N/A 30.21 1023 10 16 N/A
10:15 am 10:15 Sunny 69 20.8 58 14.4 67 67 N N/A 30.21 1023 10 16 N/A
10:35 am 10:35 Sunny 73 23 60 15.5 63 63 N N/A 30.21 1023 10 16 N/A
10:55 am 10:55 Sunny 74 23.6 58 14.4 56 56 N N/A 30.21 1023 10 16 N/A
11:15 am 11:15 Sunny 75 24 57 13.7 53 53 N N/A 30.21 1023 10 16 N/A
11:35 am 11:35 Sunny 77 25.1 55 12.7 46 46 S 6 9 30.21 1023 10 16 N/A
11:55 am 11:55 Sunny 80 26.5 54 12.4 42 42 SE 7 11 30.21 1023 10 16 N/A
12:15 pm 12:15 Sunny 80 26.5 51 10.5 37 37 SE 6 9 30.21 1023 10 16 N/A
12:35 pm 12:35 Sunny 80 26.5 52 11.1 38 38 SSE 6 9 30.21 1023 10 16 N/A
12:55 pm 12:55 Sunny 80 26.5 51 10.5 37 37 E 6 9 30.21 1023 10 16 N/A
1:15 pm 13:15 Sunny 80 26.6 51 10.7 37 37 SE 7 11 30.21 1023 10 16 N/A
1:35 pm 13:35 Sunny 81 27.2 48 8.7 31 31 SE 5 7 30.21 1023 10 16 N/A
1:55 pm 13:55 Sunny 81 27.1 48 9 32 32 N N/A 30.21 1023 10 16 N/A
2:15 pm 14:15 Sunny 81 27.4 49 9.7 33 33 ENE 5 7 30.18 1022 10 16 N/A
2:35 pm 14:35 Sunny 81 27.4 47 8.4 30 30 SSE 5 7 30.18 1022 10 16 N/A
2:55 pm 14:55 Sunny 82 27.8 49 9.5 32 32 NE 7 11 30.18 1022 10 16 N/A
3:15 pm 15:15 Sunny 82 28 49 9.3 31 31 SE 6 9 30.18 1022 10 16 N/A
3:35 pm 15:35 Sunny 82 28 47 8.5 29 29 ENE 3 6 30.18 1022 10 16 N/A
3:55 pm 15:55 Sunny 82 28 46 8 28 28 ESE 5 7 30.18 1022 10 16 N/A
4:15 pm 16:15 Sunny 83 28.1 48 9 30 30 E 8 13 30.15 1021 10 16 N/A
4:35 pm 16:35 Sunny 82 28 45 7.4 27 27 ESE 3 6 30.15 1021 10 16 N/A
4:55 pm 16:55 Sunny 83 28.1 46 8 28 28 E 6 9 30.15 1021 10 16 N/A
5:15 pm 17:15 Sunny 83 28.1 50 10.1 32 32 SE 7 11 30.15 1021 10 16 N/A
5:35 pm 17:35 Sunny 82 28 47 8.1 29 29 ESE 6 9 30.15 1021 10 16 N/A
5:55 pm 17:55 Sunny 82 28 48 8.9 30 30 ESE 7 11 30.15 1021 10 16 N/A
6:15 pm 18:15 Sunny 82 28 49 9.4 31 31 ESE 7 11 30.15 1021 10 16 N/A
6:35 pm 18:35 Sunny 81 27.2 47 8.2 30 30 SE 3 6 30.15 1021 10 16 N/A
6:55 pm 18:55 Sunny 81 27.1 50 9.8 34 34 SE 8 13 30.15 1021 10 16 N/A
7:15 pm 19:15 Sunny 80 26.5 51 10.8 37 37 E 7 11 30.15 1021 10 16 N/A
7:35 pm 19:35 Sunny 80 26.5 52 11.3 39 39 E 5 7 30.15 1021 10 16 N/A
7:55 pm 19:55 Sunny 77 25.1 52 11.1 42 42 E 3 6 30.15 1021 10 16 N/A
8:15 pm 20:15 Clear 70 20.9 59 15.2 70 70 N 5 7 30.18 1022 10 16 N/A
8:35 pm 20:35 Clear 69 20.8 61 16.2 75 75 N 3 6 30.18 1022 10 16 N/A
8:55 pm 20:55 Clear 69 20.5 61 16.1 76 76 NNW 3 6 30.18 1022 10 16 N/A
9:15 pm 21:15 Clear 69 20.3 61 16.2 77 77 N N/A 30.18 1022 10 16 N/A
9:35 pm 21:35 Clear 67 19.4 60 15.4 78 78 N N/A 30.18 1022 10 16 N/A
9:55 pm 21:55 Clear 65 18.1 58 14.6 80 80 N N/A 30.18 1022 10 16 N/A
10:15 pm 22:15 Clear 64 18 58 14.5 80 80 N N/A 30.18 1022 10 16 N/A
10:35 pm 22:35 Clear 64 18 58 14.5 80 80 N N/A 30.21 1023 7 11 N/A
10:55 pm 22:55 Clear 63 17.3 57 13.7 80 80 N N/A 30.24 1024 10 16 N/A
11:15 pm 23:15 Clear 62 16.7 57 13.7 83 83 N N/A 30.24 1024 10 16 N/A
11:35 pm 23:35 Clear 62 16.7 56 13.6 82 82 N N/A 30.24 1024 10 16 N/A
11:55 pm 23:55 Clear 62 16.6 56 13.6 83 83 N N/A 30.21 1023 10 16 N/A

Powered by AerisWeather